When you browse on this site, cookies collect data to enhance your experience and personalize the content and advertising you see.
Visit our Privacy Policy to learn more. By continuing to use the site, you agree to this use of cookies and data.

Stündliche Wetter Pshonkino

Heute, 11 August, Dienstag

Zeit Temperatur Niederschläge Wind Luftdruck Luftfeuchtigkeit
00:00 +13°C° 0 mm 2 m/S 756 mmHg 80%
01:00 +12°C° 0 mm 2 m/S 756 mmHg 82%
02:00 +10°C° 0 mm 2 m/S 757 mmHg 85%
03:00 +10°C° 0 mm 2 m/S 757 mmHg 88%
04:00 +11°C° 0 mm 1 m/S 757 mmHg 91%
05:00 +11°C° 0 mm 1 m/S 757 mmHg 94%
06:00 +13°C° 0 mm 2 m/S 757 mmHg 86%
07:00 +13°C° 0 mm 3 m/S 757 mmHg 78%
08:00 +16°C° 0 mm 3 m/S 757 mmHg 69%
09:00 +17°C° 0 mm 3 m/S 757 mmHg 67%
10:00 +18°C° 0 mm 4 m/S 757 mmHg 65%
11:00 +18°C° 0 mm 4 m/S 757 mmHg 62%
12:00 +19°C° 0 mm 4 m/S 757 mmHg 59%
13:00 +20°C° 0 mm 4 m/S 757 mmHg 56%
14:00 +20°C° 0 mm 4 m/S 757 mmHg 53%
15:00 +20°C° 0.1 mm 4 m/S 757 mmHg 58%
16:00 +19°C° 0.1 mm 4 m/S 757 mmHg 63%
17:00 +18°C° 0.1 mm 4 m/S 757 mmHg 68%
18:00 +17°C° 0 mm 3 m/S 757 mmHg 72%
19:00 +14°C° 0 mm 3 m/S 757 mmHg 75%
20:00 +14°C° 0 mm 2 m/S 757 mmHg 79%
21:00 +14°C° 0 mm 2 m/S 758 mmHg 79%
22:00 +13°C° 0 mm 2 m/S 758 mmHg 79%
23:00 +13°C° 0 mm 2 m/S 758 mmHg 78%

Morgen, 12 August, Mittwoch

Zeit Temperatur Niederschläge Wind Luftdruck Luftfeuchtigkeit
00:00 +12°C° 0 mm 2 m/S 758 mmHg 83%
01:00 +10°C° 0 mm 2 m/S 758 mmHg 87%
02:00 +9°C° 0 mm 2 m/S 758 mmHg 91%
03:00 +9°C° 0 mm 2 m/S 758 mmHg 92%
04:00 +9°C° 0 mm 2 m/S 758 mmHg 92%
05:00 +8°C° 0 mm 2 m/S 758 mmHg 93%
06:00 +10°C° 0 mm 2 m/S 758 mmHg 85%
07:00 +12°C° 0 mm 3 m/S 758 mmHg 78%
08:00 +14°C° 0 mm 3 m/S 758 mmHg 70%
09:00 +16°C° 0 mm 3 m/S 758 mmHg 65%
10:00 +17°C° 0 mm 3 m/S 758 mmHg 60%
11:00 +18°C° 0 mm 4 m/S 758 mmHg 55%
12:00 +18°C° 0 mm 3 m/S 758 mmHg 53%
13:00 +19°C° 0 mm 3 m/S 758 mmHg 51%
14:00 +19°C° 0 mm 3 m/S 758 mmHg 50%
15:00 +19°C° 0 mm 3 m/S 758 mmHg 53%
16:00 +18°C° 0 mm 3 m/S 757 mmHg 55%
17:00 +18°C° 0 mm 2 m/S 757 mmHg 58%
18:00 +17°C° 0 mm 2 m/S 757 mmHg 63%
19:00 +15°C° 0 mm 1 m/S 757 mmHg 68%
20:00 +14°C° 0 mm 1 m/S 757 mmHg 73%
21:00 +14°C° 0 mm 1 m/S 757 mmHg 74%
22:00 +13°C° 0 mm 1 m/S 757 mmHg 75%
23:00 +13°C° 0 mm 1 m/S 757 mmHg 76%

übermorgen, 13 August, Donnerstag

Zeit Temperatur Niederschläge Wind Luftdruck Luftfeuchtigkeit
00:00 +12°C° 0 mm 1 m/S 757 mmHg 80%
01:00 +11°C° 0 mm 1 m/S 757 mmHg 84%
02:00 +10°C° 0 mm 1 m/S 757 mmHg 89%
03:00 +9°C° 0 mm 0 m/S 757 mmHg 88%
04:00 +9°C° 0 mm 0 m/S 757 mmHg 88%
05:00 +10°C° 0 mm 0 m/S 757 mmHg 87%
06:00 +11°C° 0 mm 0 m/S 757 mmHg 80%
07:00 +14°C° 0 mm 1 m/S 756 mmHg 73%
08:00 +16°C° 0 mm 1 m/S 756 mmHg 66%
09:00 +18°C° 0 mm 1 m/S 756 mmHg 62%
10:00 +18°C° 0 mm 1 m/S 756 mmHg 59%
11:00 +18°C° 0 mm 2 m/S 756 mmHg 55%
12:00 +19°C° 0 mm 1 m/S 756 mmHg 57%
13:00 +18°C° 0 mm 1 m/S 756 mmHg 59%
14:00 +18°C° 0 mm 1 m/S 756 mmHg 61%
15:00 +18°C° 0 mm 1 m/S 756 mmHg 65%
16:00 +16°C° 0 mm 1 m/S 755 mmHg 70%
17:00 +16°C° 0 mm 1 m/S 755 mmHg 75%
18:00 +15°C° 0 mm 1 m/S 755 mmHg 79%
19:00 +14°C° 0 mm 1 m/S 755 mmHg 82%
20:00 +13°C° 0 mm 0 m/S 755 mmHg 86%
21:00 +12°C° 0 mm 0 m/S 755 mmHg 88%
22:00 +12°C° 0 mm 0 m/S 755 mmHg 90%
23:00 +12°C° 0 mm 1 m/S 756 mmHg 92%

14 August, Freitag

Zeit Temperatur Niederschläge Wind Luftdruck Luftfeuchtigkeit
00:00 +12°C° 0 mm 1 m/S 755 mmHg 92%
01:00 +12°C° 0 mm 1 m/S 755 mmHg 92%
02:00 +11°C° 0 mm 1 m/S 755 mmHg 92%
03:00 +11°C° 0 mm 1 m/S 756 mmHg 91%
04:00 +12°C° 0 mm 1 m/S 756 mmHg 90%
05:00 +12°C° 0 mm 1 m/S 756 mmHg 88%
06:00 +13°C° 0 mm 1 m/S 756 mmHg 85%
07:00 +14°C° 0 mm 1 m/S 756 mmHg 81%
08:00 +15°C° 0 mm 1 m/S 756 mmHg 77%
09:00 +16°C° 0 mm 1 m/S 756 mmHg 73%
10:00 +18°C° 0 mm 1 m/S 756 mmHg 68%
11:00 +20°C° 0 mm 1 m/S 756 mmHg 64%
12:00 +20°C° 0 mm 1 m/S 756 mmHg 62%
13:00 +21°C° 0 mm 1 m/S 755 mmHg 60%
14:00 +22°C° 0 mm 1 m/S 755 mmHg 58%
15:00 +22°C° 0 mm 1 m/S 755 mmHg 58%
16:00 +22°C° 0 mm 1 m/S 755 mmHg 58%
17:00 +21°C° 0 mm 1 m/S 755 mmHg 58%
18:00 +20°C° 0 mm 1 m/S 755 mmHg 65%
19:00 +18°C° 0 mm 1 m/S 755 mmHg 71%
20:00 +15°C° 0 mm 1 m/S 755 mmHg 77%
21:00 +15°C° 0 mm 1 m/S 756 mmHg 78%
22:00 +14°C° 0 mm 1 m/S 756 mmHg 78%
23:00 +14°C° 0 mm 1 m/S 756 mmHg 79%

15 August, Samstag

Zeit Temperatur Niederschläge Wind Luftdruck Luftfeuchtigkeit
00:00 +13°C° 0 mm 1 m/S 756 mmHg 80%
01:00 +13°C° 0 mm 1 m/S 756 mmHg 81%
02:00 +13°C° 0 mm 1 m/S 756 mmHg 82%
03:00 +12°C° 0 mm 1 m/S 756 mmHg 84%
04:00 +12°C° 0 mm 1 m/S 756 mmHg 87%
05:00 +12°C° 0 mm 1 m/S 756 mmHg 90%
06:00 +14°C° 0 mm 1 m/S 757 mmHg 84%
07:00 +15°C° 0 mm 1 m/S 757 mmHg 78%
08:00 +18°C° 0 mm 1 m/S 757 mmHg 72%
09:00 +20°C° 0 mm 1 m/S 757 mmHg 69%
10:00 +20°C° 0 mm 2 m/S 757 mmHg 65%
11:00 +21°C° 0 mm 2 m/S 757 mmHg 62%
12:00 +23°C° 0.1 mm 1 m/S 757 mmHg 60%
13:00 +24°C° 0.1 mm 1 m/S 756 mmHg 59%
14:00 +24°C° 0.1 mm 1 m/S 756 mmHg 57%
15:00 +24°C° 0.3 mm 1 m/S 756 mmHg 61%
16:00 +21°C° 0.3 mm 0 m/S 756 mmHg 64%
17:00 +21°C° 0.3 mm 0 m/S 756 mmHg 67%
18:00 +19°C° 0.2 mm 0 m/S 756 mmHg 75%
19:00 +17°C° 0.2 mm 0 m/S 756 mmHg 82%
20:00 +16°C° 0.2 mm 1 m/S 756 mmHg 90%
21:00 +16°C° 0 mm 1 m/S 756 mmHg 91%
22:00 +15°C° 0 mm 1 m/S 756 mmHg 91%
23:00 +15°C° 0 mm 1 m/S 756 mmHg 92%

16 August, Sonntag

Zeit Temperatur Niederschläge Wind Luftdruck Luftfeuchtigkeit
00:00 +15°C° 0 mm 1 m/S 756 mmHg 93%
01:00 +14°C° 0 mm 1 m/S 757 mmHg 94%
02:00 +14°C° 0 mm 1 m/S 757 mmHg 94%
03:00 +14°C° 0 mm 1 m/S 757 mmHg 94%
04:00 +14°C° 0 mm 1 m/S 757 mmHg 95%
05:00 +14°C° 0 mm 1 m/S 757 mmHg 95%
06:00 +15°C° 0 mm 1 m/S 757 mmHg 91%
07:00 +18°C° 0 mm 1 m/S 757 mmHg 87%
08:00 +20°C° 0 mm 1 m/S 757 mmHg 82%
09:00 +21°C° 0 mm 1 m/S 757 mmHg 75%
10:00 +23°C° 0 mm 1 m/S 757 mmHg 67%
11:00 +25°C° 0 mm 1 m/S 757 mmHg 59%
12:00 +25°C° 0.1 mm 1 m/S 756 mmHg 58%
13:00 +26°C° 0.1 mm 2 m/S 756 mmHg 57%
14:00 +26°C° 0.1 mm 2 m/S 756 mmHg 56%
15:00 +26°C° 0.1 mm 2 m/S 756 mmHg 59%
16:00 +26°C° 0.1 mm 2 m/S 756 mmHg 61%
17:00 +25°C° 0.1 mm 2 m/S 756 mmHg 64%
18:00 +23°C° 0 mm 2 m/S 756 mmHg 71%
19:00 +22°C° 0 mm 1 m/S 756 mmHg 78%
20:00 +20°C° 0 mm 1 m/S 756 mmHg 85%
21:00 +19°C° 0 mm 1 m/S 756 mmHg 87%
22:00 +18°C° 0 mm 1 m/S 756 mmHg 88%
23:00 +18°C° 0 mm 1 m/S 756 mmHg 90%
Mehr zeigen